When you browse on this site, cookies collect data to enhance your experience and personalize the content and advertising you see.
Visit our Privacy Policy to learn more. By continuing to use the site, you agree to this use of cookies and data.
  • In Germany
  • List of Countries
  • For 7 days
  • Water Temperature
  • Satellite Maps
  • Weather Map
  • Weather Widgets
  • user-avatar
    Login

    Hourly Weather Grabal

    Today, 21 February, Thursday

    Time Temperature Precipitation Wind Pressure Humidity
    00:00 +1°C° 0 mm 3 mps 754 mmHg 91%
    01:00 +2°C° 0 mm 2 mps 754 mmHg 94%
    02:00 +2°C° 0 mm 2 mps 754 mmHg 95%
    03:00 +2°C° 0 mm 2 mps 754 mmHg 95%
    04:00 +2°C° 0 mm 2 mps 754 mmHg 95%
    05:00 +2°C° 0.1 mm 3 mps 754 mmHg 96%
    06:00 +2°C° 0.1 mm 3 mps 754 mmHg 96%
    07:00 +2°C° 0.1 mm 3 mps 754 mmHg 96%
    08:00 +1°C° 0.2 mm 4 mps 754 mmHg 95%
    09:00 +3°C° 0.2 mm 4 mps 754 mmHg 95%
    10:00 +3°C° 0.2 mm 4 mps 754 mmHg 94%
    11:00 +3°C° 1 mm 4 mps 753 mmHg 93%
    12:00 +3°C° 1 mm 4 mps 753 mmHg 93%
    13:00 +4°C° 1 mm 4 mps 753 mmHg 92%
    14:00 +4°C° 0.8 mm 4 mps 753 mmHg 93%
    15:00 +4°C° 0.8 mm 4 mps 752 mmHg 93%
    16:00 +3°C° 0.8 mm 5 mps 752 mmHg 93%
    17:00 +4°C° 0.9 mm 4 mps 752 mmHg 94%
    18:00 +4°C° 0.9 mm 4 mps 752 mmHg 95%
    19:00 +4°C° 0.9 mm 3 mps 752 mmHg 96%
    20:00 +4°C° 0.9 mm 4 mps 752 mmHg 96%
    21:00 +4°C° 0.9 mm 4 mps 752 mmHg 96%
    22:00 +4°C° 0.9 mm 4 mps 752 mmHg 96%
    23:00 +1°C° 0.3 mm 5 mps 753 mmHg 91%

    Tomorrow, 22 February, Friday

    Time Temperature Precipitation Wind Pressure Humidity
    00:00 -2°C° 0.3 mm 6 mps 754 mmHg 87%
    01:00 -4°C° 0.3 mm 7 mps 755 mmHg 83%
    02:00 -4°C° 0 mm 7 mps 756 mmHg 77%
    03:00 -4°C° 0 mm 7 mps 757 mmHg 71%
    04:00 -5°C° 0 mm 6 mps 758 mmHg 65%
    05:00 -5°C° 0 mm 6 mps 759 mmHg 63%
    06:00 -6°C° 0 mm 6 mps 761 mmHg 62%
    07:00 -6°C° 0 mm 6 mps 762 mmHg 60%
    08:00 -6°C° 0 mm 6 mps 763 mmHg 54%
    09:00 -5°C° 0 mm 6 mps 764 mmHg 49%
    10:00 -5°C° 0 mm 5 mps 765 mmHg 43%
    11:00 -5°C° 0 mm 5 mps 766 mmHg 41%
    12:00 -4°C° 0 mm 5 mps 766 mmHg 40%
    13:00 -3°C° 0 mm 4 mps 767 mmHg 38%
    14:00 -3°C° 0 mm 4 mps 767 mmHg 39%
    15:00 -3°C° 0 mm 4 mps 767 mmHg 40%
    16:00 -3°C° 0 mm 4 mps 768 mmHg 42%
    17:00 -4°C° 0 mm 4 mps 768 mmHg 44%
    18:00 -4°C° 0 mm 4 mps 769 mmHg 47%
    19:00 -5°C° 0 mm 4 mps 769 mmHg 49%
    20:00 -5°C° 0 mm 3 mps 769 mmHg 48%
    21:00 -5°C° 0 mm 3 mps 770 mmHg 46%
    22:00 -5°C° 0 mm 3 mps 770 mmHg 45%
    23:00 -4°C° 0 mm 2 mps 770 mmHg 45%

    Day after tomorrow, 23 February, Saturday

    Time Temperature Precipitation Wind Pressure Humidity
    00:00 -4°C° 0 mm 2 mps 771 mmHg 45%
    01:00 -4°C° 0 mm 2 mps 771 mmHg 45%
    02:00 -2°C° 0 mm 1 mps 771 mmHg 46%
    03:00 -2°C° 0 mm 1 mps 770 mmHg 47%
    04:00 -3°C° 0 mm 1 mps 770 mmHg 48%
    05:00 -3°C° 0 mm 1 mps 770 mmHg 48%
    06:00 -3°C° 0 mm 1 mps 771 mmHg 49%
    07:00 -3°C° 0 mm 1 mps 771 mmHg 49%
    08:00 -2°C° 0 mm 1 mps 771 mmHg 44%
    09:00 -1°C° 0 mm 1 mps 771 mmHg 40%
    10:00 -1°C° 0 mm 1 mps 772 mmHg 35%
    11:00 0°C° 0 mm 1 mps 771 mmHg 33%
    12:00 0°C° 0 mm 1 mps 771 mmHg 30%
    13:00 +1°C° 0 mm 1 mps 771 mmHg 28%
    14:00 +1°C° 0 mm 1 mps 770 mmHg 29%
    15:00 +1°C° 0 mm 1 mps 770 mmHg 31%
    16:00 -1°C° 0 mm 2 mps 770 mmHg 32%
    17:00 -1°C° 0 mm 2 mps 769 mmHg 35%
    18:00 -2°C° 0 mm 2 mps 769 mmHg 37%
    19:00 -2°C° 0 mm 2 mps 769 mmHg 39%
    20:00 -2°C° 0 mm 2 mps 769 mmHg 40%
    21:00 -2°C° 0 mm 2 mps 769 mmHg 41%
    22:00 -2°C° 0 mm 2 mps 768 mmHg 42%
    23:00 -2°C° 0 mm 2 mps 768 mmHg 43%

    24 February, Sunday

    Time Temperature Precipitation Wind Pressure Humidity
    00:00 -2°C° 0 mm 3 mps 768 mmHg 44%
    01:00 -4°C° 0 mm 3 mps 768 mmHg 46%
    02:00 -2°C° 0 mm 3 mps 767 mmHg 45%
    03:00 -2°C° 0 mm 3 mps 767 mmHg 45%
    04:00 -2°C° 0 mm 3 mps 766 mmHg 45%
    05:00 -2°C° 0 mm 3 mps 766 mmHg 46%
    06:00 -2°C° 0 mm 3 mps 766 mmHg 47%
    07:00 -2°C° 0 mm 3 mps 766 mmHg 48%
    08:00 -1°C° 0 mm 3 mps 765 mmHg 47%
    09:00 -1°C° 0 mm 3 mps 765 mmHg 47%
    10:00 0°C° 0 mm 3 mps 765 mmHg 47%
    11:00 +1°C° 0 mm 3 mps 765 mmHg 50%
    12:00 +2°C° 0 mm 2 mps 765 mmHg 54%
    13:00 +3°C° 0 mm 2 mps 765 mmHg 58%
    14:00 +3°C° 0 mm 2 mps 765 mmHg 63%
    15:00 +3°C° 0 mm 2 mps 765 mmHg 69%
    16:00 +3°C° 0 mm 2 mps 764 mmHg 75%
    17:00 +2°C° 0 mm 2 mps 764 mmHg 79%
    18:00 +2°C° 0 mm 2 mps 764 mmHg 84%
    19:00 +1°C° 0 mm 2 mps 764 mmHg 88%
    20:00 +1°C° 0 mm 2 mps 764 mmHg 90%
    21:00 +1°C° 0 mm 2 mps 764 mmHg 91%
    22:00 +1°C° 0 mm 2 mps 764 mmHg 93%
    23:00 +1°C° 0 mm 2 mps 764 mmHg 93%

    25 February, Monday

    Time Temperature Precipitation Wind Pressure Humidity
    00:00 +1°C° 0 mm 2 mps 764 mmHg 93%
    01:00 -1°C° 0 mm 2 mps 764 mmHg 93%
    02:00 -1°C° 0 mm 2 mps 764 mmHg 93%
    03:00 -1°C° 0 mm 2 mps 764 mmHg 94%
    04:00 -1°C° 0 mm 2 mps 764 mmHg 94%
    05:00 -1°C° 0 mm 2 mps 764 mmHg 95%
    06:00 -1°C° 0 mm 2 mps 765 mmHg 95%
    07:00 -1°C° 0 mm 3 mps 765 mmHg 96%
    08:00 0°C° 0 mm 3 mps 765 mmHg 92%
    09:00 +1°C° 0 mm 3 mps 766 mmHg 89%
    10:00 +2°C° 0 mm 3 mps 766 mmHg 85%
    11:00 +3°C° 0 mm 3 mps 766 mmHg 79%
    12:00 +5°C° 0 mm 2 mps 766 mmHg 74%
    13:00 +6°C° 0 mm 2 mps 766 mmHg 68%
    14:00 +6°C° 0 mm 2 mps 766 mmHg 70%
    15:00 +5°C° 0 mm 2 mps 766 mmHg 72%
    16:00 +5°C° 0 mm 2 mps 765 mmHg 75%
    17:00 +4°C° 0 mm 2 mps 766 mmHg 78%
    18:00 +3°C° 0 mm 2 mps 766 mmHg 81%
    19:00 +2°C° 0 mm 2 mps 766 mmHg 84%
    20:00 +3°C° 0 mm 1 mps 765 mmHg 84%
    21:00 +2°C° 0 mm 1 mps 765 mmHg 84%
    22:00 +2°C° 0 mm 1 mps 765 mmHg 84%
    23:00 +2°C° 0 mm 1 mps 765 mmHg 84%

    26 February, Tuesday

    Time Temperature Precipitation Wind Pressure Humidity
    00:00 +1°C° 0 mm 2 mps 764 mmHg 85%
    01:00 +1°C° 0 mm 2 mps 764 mmHg 85%
    02:00 0°C° 0 mm 3 mps 763 mmHg 86%
    03:00 0°C° 0 mm 3 mps 762 mmHg 87%
    04:00 0°C° 0 mm 3 mps 762 mmHg 88%
    05:00 0°C° 0 mm 3 mps 761 mmHg 90%
    06:00 -1°C° 0 mm 4 mps 761 mmHg 91%
    07:00 -1°C° 0 mm 4 mps 760 mmHg 93%
    08:00 +1°C° 0 mm 4 mps 760 mmHg 87%
    09:00 +2°C° 0 mm 5 mps 759 mmHg 82%
    10:00 +3°C° 0 mm 5 mps 759 mmHg 76%
    11:00 +5°C° 0 mm 5 mps 759 mmHg 72%
    12:00 +5°C° 0 mm 6 mps 758 mmHg 68%
    13:00 +7°C° 0 mm 6 mps 758 mmHg 65%
    14:00 +7°C° 0 mm 5 mps 758 mmHg 67%
    15:00 +7°C° 0 mm 5 mps 757 mmHg 69%
    16:00 +7°C° 0 mm 4 mps 757 mmHg 71%
    17:00 +5°C° 0 mm 4 mps 758 mmHg 76%
    18:00 +4°C° 0 mm 4 mps 758 mmHg 81%
    19:00 +3°C° 0 mm 4 mps 758 mmHg 86%
    20:00 +1°C° 0 mm 4 mps 758 mmHg 88%
    21:00 +1°C° 0 mm 4 mps 758 mmHg 90%
    22:00 0°C° 0 mm 4 mps 758 mmHg 92%
    23:00 0°C° 0 mm 4 mps 758 mmHg 93%
    Show more